This is the latest recevied weather packets stored in our database for station/object DB8NZ-11. If no packets are shown the sender has not sent any weather packets the latest 1 day(s).
| Time | Temp. | Humidity | Pressure | Rain* | Wind** | Luminosity | Snow |
|---|---|---|---|---|---|---|---|
| 1777768925 | 9.44° C | 70% | 1021 hPa | - | - | - | - |
| 1777768025 | 9.44° C | 73% | 1021 hPa | - | - | - | - |
| 1777767125 | 9.44° C | 68% | 1021.1 hPa | - | - | - | - |
| 1777766224 | 10° C | 69% | 1021.1 hPa | - | - | - | - |
| 1777765324 | 10° C | 66% | 1021.1 hPa | - | - | - | - |
| 1777764424 | 10.56° C | 67% | 1021.2 hPa | - | - | - | - |
| 1777763524 | 10.56° C | 66% | 1021.2 hPa | - | - | - | - |
| 1777762624 | 10.56° C | 65% | 1021.2 hPa | - | - | - | - |
| 1777761724 | 11.11° C | 65% | 1021.3 hPa | - | - | - | - |
| 1777760824 | 11.11° C | 63% | 1021.4 hPa | - | - | - | - |
| 1777759924 | 11.11° C | 63% | 1021.4 hPa | - | - | - | - |
| 1777759024 | 11.67° C | 63% | 1021.4 hPa | - | - | - | - |
| 1777758124 | 12.22° C | 60% | 1021.5 hPa | - | - | - | - |
| 1777757224 | 12.78° C | 59% | 1021.4 hPa | - | - | - | - |
| 1777756324 | 12.78° C | 59% | 1021.5 hPa | - | - | - | - |
| 1777755423 | 12.78° C | 59% | 1021.6 hPa | - | - | - | - |
| 1777754523 | 13.33° C | 56% | 1021.5 hPa | - | - | - | - |
| 1777753623 | 13.89° C | 55% | 1021.6 hPa | - | - | - | - |
| 1777752723 | 14.44° C | 54% | 1021.6 hPa | - | - | - | - |
| 1777751823 | 15° C | 54% | 1021.6 hPa | - | - | - | - |
| 1777750923 | 15.56° C | 50% | 1021.6 hPa | - | - | - | - |
| 1777750023 | 16.11° C | 49% | 1021.5 hPa | - | - | - | - |
| 1777749123 | 17.22° C | 47% | 1021.4 hPa | - | - | - | - |
| 1777748223 | 18.33° C | 46% | 1021.3 hPa | - | - | - | - |
| 1777747323 | 19.44° C | 45% | 1021.2 hPa | - | - | - | - |
* Rain since midnight (hover to see other rain measurements)
** Current wind speed in m/s (hover to see current wind gust speed)